GW7097 Weather Reports


time (UTC)temp
C
wind
direction
speed
KPH
gust
KPH
rain 1hr
cm
rain 24hr
cm
rain mn
cm
humidity
%
barometer
mb
20260906131422 28 173 1.6 1.6 0.00 0.00 0.00 83 1009.7
20260906130917 27 263 3.2 3.2 0.00 0.00 0.00 84 1009.7
20260906130417 27 4 6.4 6.4 0.00 0.00 0.00 84 1009.5
20260906125916 28 274 6.4 9.7 0.00 0.00 0.00 83 1009.9
20260906125414 27 148 0.0 0.0 0.00 0.00 0.00 85 1009.5
20260906124908 27 105 1.6 1.6 0.00 0.00 0.00 86 1009.5
20260906124404 27 127 3.2 3.2 0.00 0.00 0.00 85 1009.5
20260906123904 28 206 1.6 1.6 0.00 0.00 0.00 82 1009.6
20260906123404 27 157 0.0 0.0 0.00 0.00 0.00 86 1009.5
20260906122904 27 158 1.6 1.6 0.00 0.00 0.00 88 1009.3
20260906122358 26 183 0.0 0.0 0.00 0.00 0.00 88 1009.3
20260906121855 26 166 1.6 1.6 0.00 0.00 0.00 90 1009.3
20260906121351 26 175 1.6 1.6 0.00 0.00 0.00 91 1009.6
20260906120847 25 174 0.0 0.0 0.00 0.00 0.00 94 1009.3
20260906120343 25 174 0.0 0.0 0.00 0.00 0.00 95 1009.2
20260906115839 24 173 1.6 1.6 0.00 0.00 0.00 96 1009.2
20260906115334 24 172 0.0 0.0 0.00 0.00 0.00 97 1009.1
20260906114833 23 171 1.6 1.6 0.00 0.00 0.00 97 1009.0
20260906114329 23 172 0.0 0.0 0.00 0.00 0.00 97 1009.0
20260906113824 23 172 0.0 0.0 0.00 0.00 0.00 97 1008.9
20260906113323 23 172 0.0 0.0 0.00 0.00 0.00 97 1008.7
20260906112818 23 172 1.6 1.6 0.00 0.00 0.00 98 1008.7
20260906112315 23 169 0.0 0.0 0.00 0.00 0.00 98 1008.6
20260906111814 23 168 1.6 1.6 0.00 0.00 0.00 98 1008.6
20260906111314 23 168 1.6 1.6 0.00 0.00 0.00 98 1008.5
20260906110809 23 170 0.0 0.0 0.00 0.00 0.00 98 1008.3
20260906110305 23 170 0.0 0.0 0.00 0.00 0.00 98 1008.4
20260906105803 23 171 0.0 0.0 0.00 0.00 0.00 98 1008.5
20260906105259 23 171 0.0 0.0 0.00 0.00 0.00 98 1008.6
20260906104755 23 171 0.0 0.0 0.00 0.00 0.00 98 1008.4
20260906104253 23 172 1.6 1.6 0.00 0.00 0.00 97 1008.3
20260906103752 23 172 1.6 1.6 0.00 0.00 0.00 98 1008.2
20260906103251 23 172 0.0 1.6 0.00 0.00 0.00 98 1008.4
20260906102748 23 172 0.0 0.0 0.00 0.00 0.00 98 1008.2
20260906102246 23 172 0.0 0.0 0.00 0.00 0.00 97 1008.2
20260906101741 23 172 0.0 0.0 0.00 0.00 0.00 97 1008.3
20260906101236 23 172 0.0 0.0 0.00 0.00 0.00 97 1008.1
20260906100732 23 172 0.0 0.0 0.00 0.00 0.00 97 1008.2
20260906100231 23 172 0.0 0.0 0.00 0.00 0.00 97 1008.3
20260906095727 23 172 0.0 0.0 0.00 0.00 0.00 97 1008.1
20260906095222 23 172 0.0 0.0 0.00 0.00 0.00 97 1008.2
20260906094720 23 172 0.0 0.0 0.00 0.00 0.00 97 1008.3
20260906094216 23 172 1.6 1.6 0.00 0.00 0.00 97 1008.2
20260906093713 23 172 0.0 0.0 0.00 0.00 0.00 97 1008.1
20260906093208 23 172 0.0 0.0 0.00 0.00 0.00 97 1008.1
20260906092703 23 172 0.0 0.0 0.00 0.00 0.00 97 1008.1
20260906092202 23 172 0.0 0.0 0.00 0.00 0.00 97 1008.2
20260906091658 23 172 0.0 0.0 0.00 0.00 0.00 97 1008.1
20260906091154 23 172 0.0 0.0 0.00 0.00 0.00 97 1007.8
20260906090651 23 172 0.0 0.0 0.00 0.00 0.00 97 1007.9
20260906090150 23 172 1.6 1.6 0.00 0.00 0.00 97 1007.9
20260906085649 23 172 1.6 1.6 0.00 0.00 0.00 97 1007.8
20260906085148 23 190 0.0 0.0 0.00 0.00 0.00 97 1007.8
20260906084643 23 190 1.6 1.6 0.00 0.00 0.00 97 1007.5
20260906084142 23 190 0.0 0.0 0.00 0.00 0.00 96 1007.5
20260906083638 23 190 0.0 0.0 0.00 0.00 0.00 96 1007.6
20260906083133 24 190 0.0 0.0 0.00 0.00 0.00 96 1007.6
20260906082628 24 190 0.0 0.0 0.00 0.00 0.00 96 1007.6
20260906082124 24 190 0.0 0.0 0.00 0.00 0.00 96 1007.5
20260906081620 24 190 1.6 0.0 0.00 0.00 0.00 96 1007.6
20260906081115 24 190 0.0 0.0 0.00 0.00 0.00 96 1007.5
20260906080611 24 190 0.0 0.0 0.00 0.00 0.00 96 1007.5
20260906080107 24 189 0.0 1.6 0.00 0.00 0.00 96 1007.7
20260906075607 24 186 0.0 0.0 0.00 0.00 0.00 96 1007.7
20260906075101 24 186 0.0 0.0 0.00 0.00 0.00 96 1007.7
20260906074556 24 185 0.0 0.0 0.00 0.00 0.00 96 1007.7
20260906074055 24 185 1.6 1.6 0.00 0.00 0.00 96 1007.8
20260906073550 23 191 0.0 0.0 0.00 0.00 0.00 96 1007.8
20260906073047 24 174 0.0 0.0 0.00 0.00 0.00 96 1007.7
20260906072546 24 174 0.0 0.0 0.00 0.00 0.00 96 1007.7
20260906072043 24 174 0.0 0.0 0.00 0.00 0.00 96 1007.9
20260906071539 24 174 1.6 1.6 0.00 0.00 0.00 96 1007.9
20260906071033 24 174 1.6 1.6 0.00 0.00 0.00 96 1008.0
20260906070530 24 174 0.0 0.0 0.00 0.00 0.00 96 1008.1
20260906070025 24 174 0.0 0.0 0.00 0.00 0.00 96 1007.9
20260906065525 24 174 0.0 0.0 0.00 0.00 0.00 96 1007.9
20260906065021 24 174 0.0 0.0 0.00 0.00 0.00 96 1008.1
20260906064516 24 174 0.0 0.0 0.00 0.00 0.00 96 1007.8
20260906064011 24 174 0.0 0.0 0.00 0.00 0.00 96 1007.9
20260906063506 24 174 0.0 0.0 0.00 0.00 0.00 95 1007.8
20260906063002 24 174 0.0 0.0 0.00 0.00 0.00 95 1008.0
20260906062456 24 174 0.0 0.0 0.00 0.00 0.00 95 1007.9
20260906061951 24 174 0.0 0.0 0.00 0.00 0.00 95 1007.8
20260906061448 24 174 0.0 0.0 0.00 0.00 0.00 95 1008.0
20260906060941 24 174 0.0 0.0 0.00 0.00 0.00 95 1008.0
20260906060438 24 174 1.6 1.6 0.00 0.00 0.00 95 1008.0
20260906055935 24 174 1.6 1.6 0.00 0.00 0.00 94 1008.2
20260906055430 24 175 0.0 0.0 0.00 0.00 0.00 94 1008.5
20260906054926 24 175 0.0 0.0 0.00 0.00 0.00 94 1008.2
20260906054420 24 175 0.0 0.0 0.00 0.00 0.00 94 1008.4
20260906053916 24 175 0.0 0.0 0.00 0.00 0.00 94 1008.8
20260906053412 24 175 0.0 0.0 0.00 0.00 0.00 93 1008.5
20260906052908 25 175 0.0 0.0 0.00 0.00 0.00 93 1008.6
20260906052404 25 175 0.0 0.0 0.00 0.00 0.00 93 1008.5
20260906051901 25 175 0.0 0.0 0.00 0.00 0.00 93 1008.5
20260906051400 25 175 1.6 1.6 0.00 0.00 0.00 93 1008.6
20260906050856 25 182 0.0 0.0 0.00 0.00 0.00 93 1008.4
20260906050351 25 182 0.0 1.6 0.00 0.00 0.00 93 1008.4
20260906045850 25 170 1.6 1.6 0.00 0.00 0.00 93 1008.2
20260906045349 25 167 1.6 1.6 0.00 0.00 0.00 92 1008.5
20260906044846 25 167 0.0 0.0 0.00 0.00 0.00 93 1008.4
20260906044345 25 167 1.6 1.6 0.00 0.00 0.00 93 1008.3
20260906043841 25 167 1.6 1.6 0.00 0.00 0.00 92 1008.3
20260906043337 25 166 0.0 0.0 0.00 0.00 0.00 92 1008.3
20260906042832 25 166 0.0 0.0 0.00 0.00 0.00 92 1008.6
20260906042331 25 165 0.0 0.0 0.00 0.00 0.00 92 1008.5
20260906041827 25 166 0.0 0.0 0.00 0.00 0.00 93 1008.3
20260906041322 25 166 0.0 0.0 0.00 0.00 0.00 93 1008.4
20260906040822 25 166 1.6 1.6 0.00 0.00 0.00 93 1008.6
20260906040317 25 163 0.0 0.0 0.00 0.00 0.00 92 1008.6
20260906035813 25 163 0.0 0.0 0.00 1.02 1.02 92 1008.6
20260906035308 25 163 0.0 0.0 0.00 1.02 1.02 91 1009.0
20260906034804 25 163 0.0 0.0 0.00 1.02 1.02 91 1009.3
20260906034303 25 163 0.0 0.0 0.00 1.02 1.02 91 1009.2
20260906033759 25 162 0.0 0.0 0.00 1.02 1.02 91 1009.1
20260906033258 25 163 0.0 0.0 0.00 1.02 1.02 90 1009.3
20260906032755 25 163 0.0 0.0 0.00 1.02 1.02 90 1009.5
20260906032255 25 163 0.0 0.0 0.00 1.02 1.02 91 1009.4
20260906031751 25 163 1.6 1.6 0.00 1.02 1.02 90 1009.5
20260906031247 25 162 1.6 1.6 0.00 1.02 1.02 90 1009.4
20260906030746 25 161 0.0 0.0 0.00 1.02 1.02 89 1009.3
20260906030241 25 161 0.0 0.0 0.00 1.02 1.02 88 1009.2
20260906025741 25 134 0.0 0.0 0.00 1.02 1.02 88 1009.4
20260906025235 25 125 0.0 1.6 0.00 1.02 1.02 88 1009.5
20260906024734 25 172 1.6 1.6 0.00 1.02 1.02 88 1009.6
20260906024233 25 173 0.0 0.0 0.00 1.02 1.02 88 1009.3
20260906023729 25 172 0.0 0.0 0.00 1.02 1.02 88 1009.2
20260906023225 25 173 0.0 0.0 0.00 1.02 1.02 88 1009.2
20260906022720 25 172 0.0 0.0 0.00 1.02 1.02 88 1009.3
20260906022215 25 173 0.0 0.0 0.00 1.02 1.02 87 1009.0
20260906021711 25 173 0.0 0.0 0.00 1.02 1.02 87 1008.9
20260906021210 25 173 1.6 1.6 0.00 1.02 1.02 87 1008.9
20260906020705 25 173 0.0 0.0 0.00 1.02 1.02 87 1008.9
20260906020200 25 173 1.6 1.6 0.00 1.02 1.02 86 1008.7
20260906015700 25 173 1.6 1.6 0.00 1.02 1.02 86 1009.0
20260906015158 25 173 1.6 1.6 0.00 1.02 1.02 85 1008.7
20260906014658 26 179 1.6 0.0 0.00 1.02 1.02 84 1008.9
20260906014155 26 179 0.0 0.0 0.00 1.02 1.02 85 1008.8
20260906013650 26 179 0.0 0.0 0.00 1.02 1.02 84 1008.6
20260906013145 26 179 1.6 1.6 0.00 1.02 1.02 84 1008.7
20260906012646 26 179 1.6 1.6 0.00 1.02 1.02 84 1008.7
20260906012145 26 181 0.0 1.6 0.00 1.02 1.02 83 1008.5
20260906011641 26 181 0.0 0.0 0.00 1.02 1.02 83 1008.3
20260906011136 26 174 1.6 1.6 0.00 1.02 1.02 83 1008.2
20260906010631 26 176 0.0 0.0 0.00 1.02 1.02 82 1008.2
20260906010128 26 176 0.0 0.0 0.00 1.02 1.02 82 1008.3
20260906005627 26 176 0.0 0.0 0.00 1.02 1.02 82 1008.3
20260906005127 26 195 0.0 0.0 0.00 1.02 1.02 82 1008.2
20260906004626 26 167 1.6 1.6 0.00 1.02 1.02 83 1007.9
20260906004121 26 183 0.0 0.0 0.00 1.02 1.02 83 1007.7
20260906003616 26 178 0.0 1.6 0.00 1.02 1.02 83 1007.6
20260906003112 26 184 0.0 1.6 0.00 1.02 1.02 84 1007.5
20260906002612 27 182 0.0 0.0 0.00 1.02 1.02 83 1007.6
20260906002107 27 183 0.0 0.0 0.00 1.02 1.02 83 1007.5
20260906001603 27 179 1.6 1.6 0.00 1.02 1.02 83 1007.6
20260906001102 27 255 3.2 3.2 0.00 1.02 1.02 83 1007.4
20260906000559 27 150 0.0 0.0 0.00 1.02 1.02 82 1007.6
20260906000054 27 189 0.0 0.0 0.00 1.02 1.02 84 1007.5
20260905235553 27 195 1.6 1.6 0.00 1.02 1.02 83 1007.6
20260905235048 27 175 1.6 1.6 0.00 1.02 1.02 82 1007.4
20260905234543 28 182 0.0 1.6 0.00 1.02 1.02 82 1007.4
20260905234039 28 283 4.8 4.8 0.00 1.02 1.02 81 1007.3
20260905233538 28 192 0.0 0.0 0.00 1.02 1.02 80 1007.5
20260905233038 28 177 0.0 1.6 0.00 1.02 1.02 80 1007.5
20260905232533 28 181 0.0 0.0 0.00 1.02 1.02 80 1007.7
20260905232029 28 269 4.8 4.8 0.00 1.02 1.02 79 1007.5
20260905231524 29 105 1.6 1.6 0.00 1.02 1.02 80 1007.5
20260905231021 30 268 6.4 6.4 0.00 1.02 1.02 77 1007.7
20260905230520 30 178 0.0 0.0 0.00 1.02 1.02 77 1007.5
20260905230018 30 178 0.0 0.0 0.00 1.02 1.02 77 1007.5
20260905225513 30 181 0.0 1.6 0.00 1.02 1.02 76 1007.6
20260905225008 30 182 1.6 1.6 0.00 1.02 1.02 76 1008.0
20260905224503 31 184 1.6 1.6 0.00 1.02 1.02 72 1007.8
20260905224002 31 183 0.0 0.0 0.00 1.02 1.02 70 1007.9
20260905223500 32 175 0.0 0.0 0.00 1.02 1.02 67 1007.9
20260905222955 32 171 1.6 1.6 0.00 1.02 1.02 66 1008.0
20260905222455 32 192 1.6 1.6 0.00 1.02 1.02 66 1008.1
20260905221951 32 197 3.2 3.2 0.00 1.02 1.02 64 1008.2
20260905221447 32 179 1.6 1.6 0.00 1.02 1.02 66 1008.3
20260905220943 32 164 1.6 1.6 0.00 1.02 1.02 65 1008.3
20260905220439 32 171 1.6 1.6 0.00 1.02 1.02 65 1008.4
20260905215938 32 195 1.6 1.6 0.00 1.02 1.02 68 1008.3
20260905215433 32 201 3.2 3.2 0.00 1.02 1.02 67 1008.4
20260905214930 33 288 4.8 4.8 0.00 1.02 1.02 63 1008.3
20260905214426 33 206 0.0 0.0 0.00 1.02 1.02 66 1008.4
20260905213925 33 212 1.6 1.6 0.00 1.02 1.02 65 1008.6
20260905213422 33 220 3.2 4.8 0.00 1.02 1.02 67 1008.6
20260905212917 33 191 1.6 1.6 0.00 1.02 1.02 65 1008.4
20260905212412 33 186 1.6 1.6 0.00 1.02 1.02 67 1008.2
20260905211911 33 180 1.6 1.6 0.00 1.02 1.02 66 1008.1
20260905211407 33 318 6.4 6.4 0.00 1.02 1.02 64 1008.1
20260905210903 32 301 1.6 1.6 0.00 1.02 1.02 66 1008.2
20260905210402 32 209 1.6 1.6 0.00 1.02 1.02 70 1008.0
20260905205902 31 180 0.0 0.0 0.00 1.02 1.02 71 1008.2
20260905205357 32 315 3.2 4.8 0.00 1.02 1.02 71 1008.1
20260905204855 32 192 3.2 3.2 0.00 1.02 1.02 71 1008.1
20260905204352 32 213 1.6 1.6 0.00 1.02 1.02 69 1008.2
20260905203850 31 199 1.6 1.6 0.00 1.02 1.02 73 1008.0
20260905203347 31 189 0.0 0.0 0.00 1.02 1.02 78 1008.1
20260905202843 30 181 0.0 0.0 0.00 1.02 1.02 76 1008.4
20260905202342 30 178 1.6 1.6 0.00 1.02 1.02 79 1008.6
20260905201839 30 187 1.6 1.6 0.00 1.02 1.02 77 1008.7
20260905201334 30 186 0.0 1.6 0.00 1.02 1.02 77 1008.7
20260905200833 30 189 0.0 0.0 0.00 1.02 1.02 80 1008.7
20260905200330 30 175 1.6 1.6 0.00 1.02 1.02 79 1008.7
20260905195827 30 192 1.6 1.6 0.00 1.02 1.02 79 1008.9
20260905195323 30 191 1.6 0.0 0.00 1.02 1.02 83 1008.7
20260905194819 29 245 1.6 1.6 0.00 1.02 1.02 81 1008.8
20260905194318 28 224 3.2 3.2 0.00 1.02 1.02 85 1008.9
20260905193818 28 246 1.6 1.6 0.00 1.02 1.02 85 1008.9
20260905193313 28 182 1.6 1.6 0.00 1.02 1.02 86 1009.1
20260905192808 27 170 0.0 0.0 0.00 1.02 1.02 89 1009.1
20260905192306 27 192 0.0 1.6 0.00 1.02 1.02 89 1009.3
20260905191803 27 178 1.6 1.6 0.00 1.02 1.02 92 1009.2
20260905191302 27 167 3.2 3.2 0.00 1.02 1.02 92 1009.1
20260905190801 27 188 1.6 1.6 0.00 1.02 1.02 91 1009.1
20260905190255 27 187 0.0 0.0 0.00 1.02 1.02 91 1009.1
20260905185754 27 187 1.6 1.6 0.00 1.02 1.02 91 1009.2
20260905185249 27 187 1.6 1.6 0.00 1.02 1.02 89 1009.4
20260905184748 27 188 0.0 0.0 0.00 1.02 1.02 91 1009.4
20260905184247 27 203 0.0 0.0 0.00 1.02 1.02 93 1009.4
20260905183747 26 203 0.0 0.0 0.00 1.02 1.02 92 1009.5
20260905183242 26 204 1.6 1.6 0.00 1.02 1.02 92 1009.5
20260905182742 26 220 1.6 1.6 0.00 1.02 1.02 91 1009.6
20260905182242 26 206 1.6 1.6 0.00 1.02 1.02 92 1009.5
20260905181737 27 209 0.0 1.6 0.61 1.02 1.02 93 1009.8
20260905181236 27 209 0.0 0.0 1.85 1.02 1.02 91 1009.9
20260905180731 28 177 0.0 0.0 1.37 0.94 0.94 86 1010.0
20260905180227 30 205 1.6 1.6 0.00 0.71 0.71 81 1010.1
20260905175726 30 214 1.6 1.6 0.00 0.71 0.71 78 1009.9
20260905175221 30 170 1.6 1.6 0.00 0.71 0.71 76 1010.0
20260905174716 31 193 1.6 1.6 0.00 0.71 0.71 74 1010.0
20260905174212 31 206 1.6 1.6 0.00 0.71 0.71 73 1009.9
20260905173708 31 209 1.6 1.6 0.00 0.71 0.71 71 1009.7
20260905173204 31 342 3.2 4.8 0.00 0.71 0.71 69 1010.1
20260905172703 31 247 3.2 3.2 0.00 0.71 0.71 72 1010.0
20260905172203 31 73 6.4 9.7 0.00 0.71 0.71 69 1010.0
20260905171659 32 268 6.4 6.4 0.00 0.71 0.71 68 1009.9
20260905171155 32 40 12.9 16.1 0.00 0.71 0.71 66 1010.1
20260905170652 32 321 4.8 4.8 0.00 0.71 0.71 67 1010.1
20260905170146 31 213 4.8 6.4 0.00 0.71 0.71 71 1010.1
20260905165646 31 320 6.4 9.7 0.00 0.71 0.71 71 1010.0
20260905165141 31 279 3.2 3.2 0.00 0.71 0.71 76 1010.3
20260905164636 30 325 6.4 6.4 0.00 0.71 0.71 73 1010.3
20260905164135 30 354 6.4 6.4 0.00 0.71 0.71 74 1010.4
20260905163632 30 48 3.2 4.8 0.00 0.71 0.71 77 1010.4
20260905163128 29 261 4.8 6.4 0.00 0.71 0.71 79 1010.6
20260905162624 28 349 4.8 4.8 0.00 0.71 0.71 84 1011.0
20260905162123 28 54 1.6 1.6 0.00 0.71 0.71 84 1011.1
20260905161623 27 350 3.2 4.8 0.00 0.71 0.71 85 1011.2
20260905161121 27 197 1.6 1.6 0.00 0.71 0.71 88 1011.2
20260905160620 28 14 8.0 6.4 0.00 0.71 0.71 84 1011.2
20260905160115 28 22 3.2 4.8 0.00 0.71 0.71 84 1011.4
20260905155609 29 319 4.8 4.8 0.00 0.71 0.71 84 1011.2
20260905155108 29 287 3.2 3.2 0.00 0.71 0.71 84 1011.0
20260905154608 28 211 0.0 0.0 0.00 0.71 0.71 88 1011.0
20260905154104 27 167 1.6 1.6 0.00 0.71 0.71 94 1011.2
20260905153559 26 150 0.0 0.0 0.00 0.71 0.71 91 1011.2
20260905153054 26 144 1.6 1.6 0.61 0.71 0.71 89 1011.1
20260905152549 26 164 1.6 1.6 2.29 0.71 0.71 92 1011.2
20260905152044 26 92 1.6 1.6 3.78 0.66 0.66 89 1011.3
20260905151539 27 189 0.0 0.0 2.64 0.43 0.43 88 1011.3
20260905151035 29 305 6.4 6.4 0.18 0.03 0.03 84 1011.3
20260905150529 30 319 4.8 4.8 0.00 0.00 0.00 76 1011.3
20260905150028 31 211 1.6 1.6 0.00 0.00 0.00 72 1011.2
20260905145527 30 199 1.6 1.6 0.00 0.00 0.00 73 1011.0
20260905145026 30 198 1.6 1.6 0.00 0.00 0.00 75 1011.2
20260905144521 31 334 1.6 1.6 0.00 0.00 0.00 72 1011.2
20260905144020 31 123 3.2 3.2 0.00 0.00 0.00 73 1011.2
20260905143520 31 326 6.4 9.7 0.00 0.00 0.00 73 1011.4
20260905143015 31 170 0.0 0.0 0.00 0.00 0.00 72 1011.2
20260905142514 32 176 1.6 1.6 0.00 0.00 0.00 71 1011.1
20260905142009 32 172 1.6 1.6 0.00 0.00 0.00 69 1011.3
20260905141509 31 195 0.0 0.0 0.00 0.00 0.00 72 1011.1
20260905141006 31 191 0.0 0.0 0.00 0.00 0.00 76 1011.4
20260905140501 30 285 4.8 4.8 0.00 0.00 0.00 76 1011.5
20260905135959 30 114 1.6 1.6 0.00 0.00 0.00 76 1011.3
20260905135455 30 184 1.6 1.6 0.00 0.00 0.00 79 1011.3
20260905134950 29 211 3.2 4.8 0.00 0.00 0.00 81 1011.3
20260905134449 30 62 3.2 3.2 0.00 0.00 0.00 81 1011.1
20260905133949 29 166 0.0 0.0 0.00 0.00 0.00 82 1011.2
20260905133444 28 210 1.6 1.6 0.00 0.00 0.00 84 1011.0
20260905132943 28 286 6.4 9.7 0.00 0.00 0.00 84 1011.3
20260905132438 30 191 1.6 1.6 0.00 0.00 0.00 80 1011.2
20260905131933 30 196 1.6 1.6 0.00 0.00 0.00 80 1011.2